FW0807 Weather Reports


Display with metric or nautical units.
time (UTC)temp
F
wind
direction
speed
MPH
gust
MPH
rain 1hr
in
rain 24hr
in
rain mn
in
humidity
%
barometer
mb
20260506043009 48 347 5.0 12.0 0.00 0.50 0.50 96 1011.0
20260506041506 48 14 4.0 11.0 0.00 0.50 0.50 96 1010.9
20260506040003 49 27 3.0 11.0 0.00 0.50 0.50 96 1010.6
20260506034628 50 24 3.0 11.0 0.00 0.50 0.50 96 1010.3
20260506033101 50 5 5.0 10.0 0.01 0.50 0.50 96 1009.9
20260506031553 51 339 6.0 12.0 0.14 0.50 0.50 96 1009.8
20260506030052 51 340 5.0 14.0 0.16 0.50 0.50 96 1009.6
20260506024549 51 34 5.0 11.0 0.16 0.50 0.50 96 1009.3
20260506023103 52 18 4.0 13.0 0.15 0.49 0.49 96 1008.9
20260506021540 53 355 4.0 11.0 0.02 0.36 0.36 96 1008.5
20260506020039 54 329 6.0 15.0 0.00 0.34 0.34 96 1008.2
20260506014534 54 355 6.0 11.0 0.01 0.34 0.34 95 1007.8
20260506013031 55 350 6.0 12.0 0.01 0.34 0.34 95 1007.9
20260506011528 56 47 5.0 10.0 0.01 0.34 0.34 95 1007.9
20260506010026 57 51 3.0 6.0 0.01 0.34 0.34 96 1007.0
20260506004534 57 37 5.0 11.0 0.00 0.33 0.33 95 1006.8
20260506003036 58 15 5.0 10.0 0.00 0.33 0.33 95 1006.5
20260506001519 58 332 4.0 11.0 0.00 0.33 0.33 95 1006.3
20260506000017 59 30 6.0 12.0 0.00 0.33 0.33 95 1006.2
20260505234525 60 19 8.0 15.0 0.00 0.33 0.33 94 1005.8
20260505233012 61 349 6.0 11.0 0.00 0.33 0.33 94 1006.0
20260505231515 63 39 5.0 10.0 0.00 0.33 0.33 93 1005.9
20260505230012 66 33 5.0 9.0 0.00 0.33 0.33 93 1005.0
20260505224511 68 147 0.0 1.0 0.00 0.33 0.33 95 1005.1
20260505223009 68 147 0.0 3.0 0.00 0.33 0.33 94 1005.2
20260505221512 68 178 1.0 5.0 0.00 0.33 0.33 94 1005.5
20260505220020 68 209 0.0 2.0 0.00 0.33 0.33 94 1005.5
20260505214508 68 190 1.0 3.0 0.00 0.33 0.33 94 1005.2
20260505213006 67 169 0.0 0.0 0.00 0.33 0.33 94 1004.7
20260505211506 67 205 0.0 2.0 0.00 0.33 0.33 94 1005.2
20260505210005 67 202 1.0 4.0 0.00 0.33 0.33 94 1005.5
20260505204504 67 198 0.0 4.0 0.00 0.33 0.33 94 1005.5
20260505203002 67 188 0.0 4.0 0.00 0.33 0.33 94 1005.6
20260505201605 67 172 0.0 4.0 0.00 0.33 0.33 95 1005.6
20260505201501 67 186 0.0 4.0 0.00 0.33 0.33 95 1005.7
20260505200105 67 227 0.0 0.0 0.00 0.33 0.33 95 1005.8
20260505194600 67 221 0.0 0.0 0.00 0.33 0.33 95 1005.8
20260505193100 67 234 0.0 0.0 0.00 0.33 0.33 94 1005.7
20260505191601 66 200 0.0 2.0 0.00 0.33 0.33 95 1005.9
20260505190057 66 191 0.0 1.0 0.00 0.33 0.33 95 1005.9
20260505184602 66 205 0.0 2.0 0.00 0.33 0.33 94 1005.7
20260505183054 66 196 1.0 3.0 0.00 0.33 0.33 94 1005.8
20260505181554 66 155 1.0 4.0 0.00 0.33 0.33 95 1005.7
20260505180058 65 180 2.0 5.0 0.00 0.33 0.33 95 1005.7
20260505173049 65 198 1.0 5.0 0.00 0.33 0.33 96 1005.8
20260505171548 65 186 0.0 3.0 0.00 0.33 0.33 96 1005.9
20260505170117 65 186 1.0 3.0 0.00 0.33 0.33 96 1006.1
20260505164549 64 179 0.0 4.0 0.00 0.33 0.33 96 1006.2
20260505163046 64 195 0.0 2.0 0.00 0.33 0.33 96 1006.4
20260505161555 64 179 0.0 3.0 0.00 0.33 0.33 96 1006.4
20260505153054 63 174 1.0 3.0 0.00 0.33 0.33 96 1006.5
20260505151549 63 186 2.0 5.0 0.00 0.33 0.33 96 1006.5
20260505124532 60 202 1.0 4.0 0.05 0.33 0.33 97 1006.1
20260505123050 60 188 0.0 2.0 0.05 0.33 0.33 97 1006.8
20260505121528 60 181 1.0 2.0 0.11 0.33 0.33 96 1006.8
20260505120030 60 19 2.0 4.0 0.15 0.32 0.32 96 1007.0
20260505114523 60 189 3.0 7.0 0.15 0.28 0.28 96 1006.9
20260505113032 60 194 0.0 2.0 0.20 0.28 0.28 95 1006.9
20260505111536 60 182 0.0 0.0 0.19 0.22 0.22 95 1006.8
20260505101515 62 271 1.0 4.0 0.03 0.03 0.03 88 1006.9
20260505100010 63 287 0.0 0.0 0.00 0.00 0.00 84 1006.7
20260505094508 63 301 0.0 1.0 0.00 0.00 0.00 80 1006.3
20260505093005 64 275 0.0 2.0 0.00 0.00 0.00 77 1005.8
20260505091505 64 170 1.0 3.0 0.00 0.00 0.00 77 1005.5
20260505090005 64 189 1.0 4.0 0.00 0.00 0.00 76 1005.3
20260505084507 64 195 0.0 4.0 0.00 0.00 0.00 75 1005.1
20260505083008 64 189 1.0 3.0 0.00 0.00 0.00 76 1005.3
20260505081600 65 196 0.0 5.0 0.00 0.00 0.00 73 1005.0
20260505081502 65 284 0.0 5.0 0.00 0.00 0.00 73 1005.1
20260505080059 65 179 2.0 4.0 0.00 0.00 0.00 74 1005.5
20260505074557 64 161 2.0 4.0 0.00 0.00 0.00 75 1005.8
20260505073056 64 213 0.0 4.0 0.00 0.00 0.00 75 1006.1
20260505071553 64 173 2.0 4.0 0.00 0.00 0.00 74 1006.2
20260505070053 64 177 1.0 5.0 0.00 0.00 0.00 73 1006.3
20260505064600 64 158 1.0 5.0 0.00 0.00 0.00 74 1006.5
20260505063053 64 205 1.0 5.0 0.00 0.00 0.00 74 1006.7
20260505061548 64 189 1.0 4.0 0.00 0.00 0.00 74 1006.8
20260505060046 64 213 2.0 4.0 0.00 0.00 0.00 74 1007.2
20260505054550 64 202 2.0 5.0 0.00 0.00 0.00 74 1007.5
20260505053040 64 164 0.0 0.0 0.00 0.00 0.00 75 1007.8
20260505051537 64 194 1.0 3.0 0.00 0.00 0.00 74 1007.8